sat.trackr.live / text

‹ back to catalog

LAPAN-A3

NORAD 41603 · 2016-040E

PAYLOAD ACTIVE UNKNOWN

§ Identity

Operator
Country
INDO
Launch date
2016-06-22
Launch site
SRILR
Launch vehicle
Mass (kg)
RCS (m²)
0.28

Purposes: earth_obs

External: N2YO · Heavens-Above · Gunter

§ Orbital elements

Epoch: 2026-09-20T04:57:55.335744Z

Period
93.90 min
Inclination
97.1574°
Eccentricity
0.0011338
Mean motion
15.33623958 rev/d
Perigee alt
457.3 km
Apogee alt
472.8 km
Semi-major
6,843.1 km
B*
7.7054e-5
RAAN
256.3061°
Arg perigee
42.7812°
Mean anomaly
317.4312°
Rev number
56,937

§ Raw data

LAPAN-A31 41603U 16040E   26263.20689046  .00002433  00000+0  77054-4 0  99972 41603  97.1574 256.3061 0011338  42.7812 317.4312 15.33623958569378

JSON: /api/v1/satellites/41603 · /tle

For live sub-satellite position, see the globe view (requires WebGL).

§ Visibility from observer

Set your observer location to see the next 7 days of passes ≥ 10°. The values pass through the URL so the page stays shareable.

No JS? Fill the form by hand. The geolocation button needs JavaScript.

§ Radio — SatNOGS DB

ModeDescriptionDownlinkUplink
FFSK Mode 1200bps FFSK 437.425 MHz
FM Mode X 8.200 GHz

2 transmitters · refreshed weekly from db.satnogs.org